[[{"header":{"parameterUnit":"m.s-1","parameterCategory":1,"la1":30.2991,"la2":30.254,"lo1":-89.0895,"lo2":-89.0444,"dy":0.0017,"dx":0.0017,"nx":28,"ny":28,"refTime":"2024-07-06T21:00:00:Z","depth":0,"parameterNumber":2,"parameterNumberName":"U-component_of_WINDS"},"data":[0,0,0,0,0,0,0,0,0,0,0,0,0,0,0,0,0,0,0,0,0,0,0,0,0,0,0,0,0,0,0,0,0,0,0,0,0,0,0,0,0,0,0,0,0,0,0,0,0,0,0,0,0,0,0,0,0,0,0.2508,0.2509,0,0.2605,0.2606,0.2607,0.2648,0.2647,0.2647,0.2647,0.2747,0.275,0.2752,0,0,0,0,0,0,0,0,0,0,0,0,0,0.2355,0.2357,0.2508,0.2509,0.251,0.2605,0.2606,0.2608,0.2648,0.2647,0.2647,0.2647,0.2746,0.2749,0.2753,0,0,0,0,0,0,0,0,0,0,0,0,0,0.2434,0.2358,0.2507,0.2541,0.2545,0.2605,0.2606,0.2608,0.2648,0.2647,0.2647,0.2647,0.2745,0.2749,0.2753,0.2786,0,0,0.2766,0.2768,0,0,0,0,0,0,0,0,0.2429,0.2439,0.2535,0.2539,0.2544,0.2614,0.2589,0.2668,0.2648,0.2609,0.2647,0.2647,0.2703,0.2711,0.273,0.2791,0.2795,0.2767,0.2769,0.2771,0.2772,0,0,0,0,0,0,0,0.2424,0.2435,0.2546,0.2537,0.2542,0.2551,0.2562,0.2604,0.2656,0.2612,0.2615,0.2626,0.2705,0.2725,0.2732,0.2796,0.2767,0.277,0.2773,0.2775,0.2888,0.2889,0,0,0,0,0,0,0.2413,0.243,0.2543,0.2549,0.2484,0.2554,0.2567,0.2592,0.2656,0.2666,0.2627,0.2628,0.2718,0.2727,0.2736,0.2778,0.2771,0.2775,0.2777,0.2888,0.2888,0.2889,0,0,0,0,0,0,0.2409,0.2422,0.2539,0.2491,0.2506,0.2557,0.2585,0.2594,0.2614,0.2667,0.2676,0.2638,0.2718,0.273,0.2773,0.2782,0.2777,0.2781,0.2887,0.2888,0.2889,0.2863,0,0,0,0,0,0,0.2405,0.2421,0.2434,0.2491,0.2509,0.2575,0.2586,0.2596,0.2621,0.2624,0.268,0.2689,0.2719,0.2766,0.2777,0.2788,0.2784,0.2887,0.2888,0.2888,0.2863,0.2863,0.2862,0,0,0,0,0,0.2399,0.2423,0.2435,0.2448,0.2526,0.2575,0.2586,0.262,0.2622,0.2635,0.2669,0.2687,0.2779,0.277,0.2783,0.2795,0.2886,0.2887,0.2888,0.2863,0.2863,0.2862,0,0,0,0,0,0,0.2366,0.2431,0.2445,0.2488,0.2526,0.2582,0.26,0.2618,0.2656,0.2657,0.2698,0.271,0.275,0.2777,0.2766,0.283,0.2834,0.2838,0.2811,0.2811,0.281,0.2803,0.2788,0,0,0,0,0,0.2364,0.2398,0.2453,0.2486,0.2504,0.2549,0.2571,0.2594,0.2635,0.2652,0.2689,0.2728,0.2765,0.2789,0.2827,0.2867,0.288,0.2881,0.2881,0.288,0.2883,0.2905,0.2907,0.2892,0.2892,0.2892,0,0,0.236,0.2399,0.2419,0.248,0.2512,0.2547,0.2562,0.2598,0.2624,0.2657,0.27,0.2728,0.2775,0.2816,0.2836,0.284,0.289,0.2881,0.288,0.2884,0.2907,0.2908,0.2909,0.2893,0.2893,0.2893,0,0,0.2369,0.2403,0.2434,0.2466,0.2514,0.2543,0.255,0.2604,0.2624,0.2668,0.2693,0.2724,0.2789,0.2821,0.2845,0.2866,0.2883,0.2877,0.2874,0.2896,0.2897,0.2898,0.2905,0.2907,0.2879,0.2879,0.2879,0,0.2358,0.2411,0.2447,0.2482,0.2508,0.2539,0.257,0.2599,0.2657,0.2675,0.2678,0.2759,0.2792,0.2841,0.2846,0.2865,0.2874,0.2871,0.2894,0.2895,0.2897,0.2904,0.2907,0.2878,0.2878,0.2878,0.2878,0,0.2395,0.2431,0.245,0.2505,0.2534,0.2566,0.2607,0.2631,0.2651,0.268,0.2723,0.2764,0.281,0.2824,0.2844,0.2875,0.2876,0.2886,0.2891,0.2897,0.2904,0.2907,0.2876,0.2877,0.2877,0.2878,0,0,0.2387,0.2461,0.2468,0.2493,0.2548,0.2577,0.2611,0.2656,0.2676,0.2714,0.2743,0.2797,0.2806,0.2833,0.2857,0.2876,0.289,0.2884,0.2886,0.2883,0.2927,0.2919,0.2921,0.2901,0.2902,0.2903,0.2923,0,0.2405,0.2467,0.2499,0.2547,0.2581,0.2611,0.264,0.2677,0.2705,0.2737,0.2767,0.2804,0.2814,0.2831,0.2851,0.2884,0.2899,0.2883,0.2929,0.293,0.2916,0.2926,0.2918,0.2935,0.2926,0.2926,0.2927,0,0.2433,0.2471,0.2523,0.2574,0.2589,0.2615,0.2659,0.2689,0.2731,0.275,0.278,0.2804,0.284,0.2842,0.2892,0.2881,0.2901,0.292,0.2922,0.2927,0.2929,0.2932,0.2941,0.2943,0.2932,0.2931,0.2931,0,0.2422,0.2487,0.2526,0.2546,0.2607,0.2624,0.265,0.2692,0.2716,0.2754,0.2771,0.2812,0.2835,0.2867,0.2901,0.2899,0.2947,0.2952,0.2964,0.2963,0.2973,0.2972,0.2986,0.2986,0.2986,0.2986,0.2986,0,0.2438,0.2468,0.2522,0.2545,0.258,0.2617,0.265,0.2678,0.2715,0.2744,0.2772,0.28,0.2843,0.2875,0.2902,0.2939,0.2949,0.2965,0.2972,0.2963,0.2961,0.2977,0.2977,0.2986,0.2986,0.2986,0.2986,0,0.2432,0.2469,0.2513,0.2567,0.2581,0.2604,0.2649,0.2673,0.2702,0.2739,0.275,0.2795,0.2834,0.2871,0.2924,0.2941,0.2979,0.2988,0.2965,0.2969,0.2978,0.2976,0.3003,0.3008,0.3004,0.3004,0.3004,0,0.244,0.2464,0.252,0.2542,0.2567,0.2602,0.2627,0.2664,0.269,0.2739,0.2757,0.2798,0.2833,0.2895,0.2932,0.2972,0.2982,0.2989,0.2989,0.2978,0.2982,0.2981,0.2983,0.2988,0.2988,0.2988,0.2988,0,0.245,0.2467,0.2503,0.2544,0.2574,0.2609,0.2644,0.266,0.2704,0.2731,0.2771,0.2799,0.2852,0.2893,0.2937,0.2964,0.2983,0.2987,0.2992,0.2983,0.2969,0.2977,0.2963,0.2987,0.2987,0.2987,0.2987,0.2987,0.2451,0.2474,0.2516,0.2555,0.2586,0.2618,0.2643,0.2675,0.2709,0.2756,0.2775,0.2816,0.2857,0.2919,0.2945,0.2977,0.2982,0.2988,0.299,0.2991,0.299,0.2963,0.2985,0.2986,0.2986,0.2986,0.2986,0,0.2463,0.2491,0.2526,0.2575,0.2605,0.2621,0.2661,0.2685,0.2721,0.2757,0.2791,0.2837,0.2877,0.2917,0.2958,0.2976,0.2986,0.2986,0.2985,0.2991,0.2983,0.2975,0.2977,0.2977,0.2977,0.2977,0.2977,0.2977,0.2472,0.2511,0.2532,0.2586,0.2615,0.2655,0.2677,0.2707,0.2736,0.2786,0.2819,0.2845,0.2883,0.2927,0.2964,0.2975,0.2989,0.2986,0.2999,0.2991,0.2992,0.2992,0.2984,0.2989,0.2989,0.3004,0.3004,0.3004]},{"header":{"parameterUnit":"m.s-1","parameterCategory":1,"la1":30.2991,"la2":30.254,"lo1":-89.0895,"lo2":-89.0444,"dy":0.0017,"dx":0.0017,"nx":28,"ny":28,"refTime":"2024-07-06T21:00:00:Z","depth":0,"parameterNumber":3,"parameterNumberName":"V-component_of_WINDS"},"data":[0,0,0,0,0,0,0,0,0,0,0,0,0,0,0,0,0,0,0,0,0,0,0,0,0,0,0,0,0,0,0,0,0,0,0,0,0,0,0,0,0,0,0,0,0,0,0,0,0,0,0,0,0,0,0,0,0,0,3.675,3.675,0,3.6744,3.6744,3.6744,3.6699,3.6698,3.6697,3.6696,3.6689,3.669,3.6691,0,0,0,0,0,0,0,0,0,0,0,0,0,3.6725,3.6725,3.675,3.675,3.675,3.6744,3.6744,3.6744,3.6699,3.6698,3.6697,3.6695,3.6689,3.669,3.6691,0,0,0,0,0,0,0,0,0,0,0,0,0,3.6729,3.6726,3.675,3.6727,3.6725,3.6744,3.6744,3.6744,3.67,3.6698,3.6696,3.6695,3.6689,3.669,3.6691,3.6731,0,0,3.6695,3.6695,0,0,0,0,0,0,0,0,3.6729,3.673,3.6731,3.6729,3.6727,3.6721,3.6732,3.6739,3.67,3.6709,3.6696,3.6694,3.6701,3.6701,3.6703,3.6731,3.6731,3.6695,3.6696,3.6696,3.6697,0,0,0,0,0,0,0,3.6728,3.673,3.6748,3.6731,3.6728,3.6717,3.6716,3.6733,3.6714,3.6708,3.6705,3.6705,3.6699,3.6702,3.6703,3.6731,3.6695,3.6696,3.6697,3.6697,3.6791,3.6793,0,0,0,0,0,0,3.6731,3.673,3.6748,3.6748,3.6724,3.6719,3.6718,3.6724,3.6714,3.6711,3.6706,3.6703,3.6701,3.6701,3.6703,3.6749,3.6696,3.6697,3.6698,3.6789,3.6791,3.6793,0,0,0,0,0,0,3.6731,3.6733,3.6748,3.6738,3.6739,3.6721,3.6729,3.6725,3.6728,3.6712,3.6709,3.6713,3.67,3.6701,3.6724,3.6748,3.6698,3.6699,3.6787,3.679,3.6792,3.6842,0,0,0,0,0,0,3.673,3.6733,3.6749,3.6738,3.674,3.677,3.673,3.6726,3.673,3.6725,3.6717,3.6715,3.6698,3.6723,3.6726,3.6749,3.67,3.6785,3.6788,3.6791,3.6839,3.6846,3.6853,0,0,0,0,0,3.673,3.6763,3.675,3.6752,3.6758,3.6772,3.6772,3.6753,3.6732,3.6747,3.6737,3.6715,3.6745,3.6726,3.6729,3.6753,3.6783,3.6787,3.6791,3.6835,3.6845,3.6853,0,0,0,0,0,0,3.6776,3.6761,3.6746,3.6777,3.6776,3.6764,3.6783,3.6764,3.6769,3.6764,3.674,3.6739,3.6766,3.6762,3.674,3.6791,3.676,3.6765,3.6793,3.6802,3.6809,3.681,3.6701,0,0,0,0,0,3.679,3.6803,3.6789,3.6817,3.6818,3.6801,3.6806,3.6791,3.6789,3.6788,3.678,3.6779,3.6788,3.6795,3.6802,3.6838,3.6835,3.6856,3.6863,3.6869,3.6873,3.6892,3.6901,3.6806,3.6806,3.6806,0,0,3.6819,3.6812,3.6822,3.6827,3.6824,3.6838,3.68,3.6816,3.6826,3.6791,3.6812,3.6807,3.6804,3.6834,3.6846,3.6831,3.6899,3.6874,3.6879,3.688,3.6897,3.6906,3.6914,3.6809,3.6808,3.6808,0,0,3.6878,3.6875,3.6898,3.6896,3.6893,3.6881,3.6887,3.6878,3.6873,3.6895,3.6868,3.688,3.6896,3.6895,3.6897,3.6956,3.6936,3.6959,3.6998,3.7016,3.7023,3.703,3.7051,3.7059,3.6964,3.6964,3.6964,0,3.6915,3.6934,3.6913,3.693,3.6933,3.6902,3.6926,3.6925,3.6924,3.6927,3.691,3.693,3.6926,3.6955,3.6969,3.6972,3.6978,3.696,3.7024,3.703,3.7036,3.7056,3.7064,3.6967,3.6967,3.6966,3.6966,0,3.6978,3.6992,3.7012,3.7012,3.7017,3.7038,3.702,3.7028,3.7013,3.7003,3.7026,3.702,3.7025,3.7031,3.7017,3.7059,3.7049,3.7028,3.6997,3.7048,3.7067,3.7074,3.6971,3.697,3.6969,3.6968,0,0,3.7067,3.7055,3.7063,3.7063,3.7057,3.7067,3.7086,3.7092,3.7099,3.71,3.7116,3.713,3.7111,3.7113,3.7098,3.7114,3.7162,3.7091,3.7091,3.7105,3.7208,3.7223,3.7233,3.7148,3.715,3.7151,3.7208,0,3.7124,3.7156,3.7138,3.7172,3.7185,3.7156,3.7172,3.7171,3.7162,3.7172,3.7162,3.7173,3.7147,3.7148,3.7162,3.7153,3.7182,3.7149,3.7163,3.7163,3.7164,3.7242,3.7259,3.7313,3.7215,3.7216,3.7217,0,3.7194,3.7198,3.7235,3.7226,3.7231,3.7246,3.725,3.726,3.7257,3.725,3.7252,3.7234,3.7252,3.7221,3.7246,3.7224,3.7229,3.7225,3.7227,3.7227,3.7193,3.7245,3.733,3.7338,3.7228,3.7227,3.7226,0,3.7255,3.727,3.7293,3.7294,3.7285,3.7296,3.7293,3.7289,3.7294,3.7298,3.73,3.7306,3.7309,3.7314,3.7298,3.7277,3.7325,3.7293,3.7319,3.732,3.7331,3.733,3.7418,3.7334,3.7334,3.7334,3.7334,0,3.7321,3.7344,3.732,3.7335,3.736,3.7339,3.7364,3.7358,3.7355,3.7368,3.7343,3.7355,3.7332,3.7343,3.733,3.7353,3.7354,3.7349,3.7345,3.7351,3.7352,3.7354,3.735,3.7336,3.7335,3.7335,3.7335,0,3.7393,3.7378,3.7402,3.7391,3.7389,3.7409,3.74,3.7413,3.7403,3.7419,3.7422,3.7406,3.7417,3.7401,3.741,3.7401,3.7433,3.7423,3.7434,3.7431,3.7458,3.7456,3.755,3.7562,3.7471,3.7472,3.7472,0,3.7436,3.7453,3.7445,3.7452,3.745,3.7461,3.7466,3.7446,3.7452,3.745,3.7464,3.7472,3.7478,3.7497,3.7487,3.7493,3.7484,3.7517,3.7485,3.749,3.7485,3.7484,3.7485,3.7523,3.7524,3.7525,3.7526,0,3.7513,3.7505,3.7513,3.7518,3.7525,3.7528,3.753,3.7537,3.7515,3.7523,3.7534,3.7539,3.7548,3.7557,3.7562,3.7558,3.7539,3.7536,3.7542,3.7549,3.7554,3.7552,3.7451,3.7534,3.7533,3.7532,3.7532,3.7532,3.7572,3.7586,3.7583,3.7592,3.7591,3.7593,3.7605,3.7596,3.7605,3.7611,3.7599,3.7613,3.761,3.7614,3.7613,3.7623,3.7609,3.7619,3.7621,3.7624,3.7628,3.7552,3.7624,3.7624,3.7624,3.7623,3.7623,0,3.7648,3.7645,3.7654,3.7657,3.7664,3.7645,3.7646,3.7654,3.7666,3.7665,3.7672,3.7684,3.7693,3.7683,3.769,3.7701,3.7692,3.7703,3.7702,3.7702,3.764,3.7634,3.771,3.771,3.771,3.771,3.771,3.771,3.7689,3.7712,3.7703,3.7725,3.7721,3.7735,3.7737,3.7739,3.7738,3.7753,3.776,3.7754,3.775,3.7756,3.7763,3.776,3.7764,3.7779,3.7773,3.7715,3.7706,3.7698,3.7692,3.778,3.778,3.7833,3.7834,3.7834]}]]